Time,TemperatureF,DewpointF,PressureIn,WindDirection,WindDirectionDegrees,WindSpeedMPH,WindSpeedGustMPH,Humidity,HourlyPrecipIn,Conditions,Clouds,dailyrainin,SoftwareType,DateUTC
2013-08-02 00:12:00,70.0,-99.9,-100.00,SW,226,0.0,0.0,-999,0.00,,,0.00,,2013-08-02 05:12:00,
2013-08-02 00:22:00,70.0,-99.9,-100.00,SW,226,0.0,0.0,-999,0.00,,,0.00,,2013-08-02 05:22:00,
2013-08-02 00:43:00,69.0,-99.9,-100.00,SSW,210,0.0,0.0,-999,0.00,,,0.00,,2013-08-02 05:43:00,
2013-08-02 00:53:00,69.0,-99.9,-100.00,SSW,210,0.0,0.0,-999,0.00,,,0.00,,2013-08-02 05:53:00,
2013-08-02 01:12:00,69.0,-99.9,-100.00,SSW,201,0.0,0.0,-999,0.00,,,0.00,,2013-08-02 06:12:00,
2013-08-02 01:22:00,69.0,-99.9,-100.00,SSW,201,0.0,0.0,-999,0.00,,,0.00,,2013-08-02 06:22:00,
2013-08-02 01:43:00,68.0,-99.9,-100.00,South,183,0.0,0.0,-999,0.00,,,0.00,,2013-08-02 06:43:00,
2013-08-02 01:53:00,68.0,-99.9,-100.00,South,183,0.0,0.0,-999,0.00,,,0.00,,2013-08-02 06:53:00,
2013-08-02 02:12:00,68.0,-99.9,-100.00,SSW,211,0.0,0.0,-999,0.00,,,0.00,,2013-08-02 07:12:00,
2013-08-02 02:23:00,68.0,-99.9,-100.00,SSW,211,0.0,0.0,-999,0.00,,,0.00,,2013-08-02 07:23:00,
2013-08-02 02:44:00,67.0,-99.9,-100.00,SSW,197,0.0,0.0,-999,0.00,,,0.00,,2013-08-02 07:44:00,
2013-08-02 02:53:00,67.0,-99.9,-100.00,SSW,197,0.0,0.0,-999,0.00,,,0.00,,2013-08-02 07:53:00,
2013-08-02 03:12:00,67.0,-99.9,-100.00,South,189,0.0,0.0,-999,0.00,,,0.00,,2013-08-02 08:12:00,
2013-08-02 03:22:00,67.0,-99.9,-100.00,South,189,0.0,0.0,-999,0.00,,,0.00,,2013-08-02 08:22:00,
2013-08-02 03:44:00,67.0,-99.9,-100.00,SSW,203,0.0,0.0,-999,0.00,,,0.00,,2013-08-02 08:44:00,
2013-08-02 03:54:00,67.0,-99.9,-100.00,SSW,203,0.0,0.0,-999,0.00,,,0.00,,2013-08-02 08:54:00,
2013-08-02 04:12:00,66.0,-99.9,-100.00,SSW,207,0.0,0.0,-999,0.00,,,0.00,,2013-08-02 09:12:00,
2013-08-02 04:23:00,66.0,-99.9,-100.00,SSW,207,0.0,0.0,-999,0.00,,,0.00,,2013-08-02 09:23:00,
2013-08-02 04:44:00,66.0,-99.9,-100.00,SSW,192,0.0,0.0,-999,0.00,,,0.00,,2013-08-02 09:44:00,
2013-08-02 04:53:00,66.0,-99.9,-100.00,SSW,192,0.0,0.0,-999,0.00,,,0.00,,2013-08-02 09:53:00,
2013-08-02 05:03:00,67.0,-99.9,-100.00,South,187,0.0,0.0,-999,0.00,,,0.00,,2013-08-02 10:03:00,
2013-08-02 05:12:00,67.0,-99.9,-100.00,South,187,0.0,0.0,-999,0.00,,,0.00,,2013-08-02 10:12:00,
2013-08-02 05:23:00,67.0,-99.9,-100.00,South,187,0.0,0.0,-999,0.00,,,0.00,,2013-08-02 10:23:00,
2013-08-02 05:44:00,67.0,-99.9,-100.00,South,179,0.0,0.0,-999,0.00,,,0.00,,2013-08-02 10:44:00,
2013-08-02 05:52:00,67.0,-99.9,-100.00,South,179,0.0,0.0,-999,0.00,,,0.00,,2013-08-02 10:52:00,
2013-08-02 06:02:00,67.0,-99.9,-100.00,South,190,0.0,0.0,-999,0.00,,,0.00,,2013-08-02 11:02:00,
2013-08-02 06:12:00,67.0,-99.9,-100.00,South,190,0.0,0.0,-999,0.00,,,0.00,,2013-08-02 11:12:00,
2013-08-02 06:23:00,67.0,-99.9,-100.00,South,190,0.0,0.0,-999,0.00,,,0.00,,2013-08-02 11:23:00,
2013-08-02 06:43:00,68.0,-99.9,-100.00,SW,223,0.0,0.0,-999,0.00,,,0.00,,2013-08-02 11:43:00,
2013-08-02 06:52:00,68.0,-99.9,-100.00,SW,223,0.0,0.0,-999,0.00,,,0.00,,2013-08-02 11:52:00,
2013-08-02 07:12:00,68.0,-99.9,-100.00,SSW,201,0.0,0.0,-999,0.00,,,0.00,,2013-08-02 12:12:00,
2013-08-02 07:22:00,68.0,-99.9,-100.00,SSW,201,0.0,0.0,-999,0.00,,,0.00,,2013-08-02 12:22:00,
2013-08-02 07:43:00,69.0,-99.9,-100.00,SW,229,0.0,0.0,-999,0.00,,,0.00,,2013-08-02 12:43:00,
2013-08-02 07:52:00,69.0,-99.9,-100.00,SW,229,0.0,0.0,-999,0.00,,,0.00,,2013-08-02 12:52:00,
2013-08-02 08:03:00,71.0,-99.9,-100.00,SW,216,0.0,0.0,-999,0.00,,,0.00,,2013-08-02 13:03:00,
2013-08-02 08:12:00,71.0,-99.9,-100.00,SW,216,0.0,0.0,-999,0.00,,,0.00,,2013-08-02 13:12:00,
2013-08-02 08:22:00,71.0,-99.9,-100.00,SW,216,0.0,0.0,-999,0.00,,,0.00,,2013-08-02 13:22:00,
2013-08-02 08:33:00,72.0,-99.9,-100.00,WSW,242,3.0,8.0,-999,0.00,,,0.00,,2013-08-02 13:33:00,
2013-08-02 08:43:00,72.0,-99.9,-100.00,WSW,242,3.0,8.0,-999,0.00,,,0.00,,2013-08-02 13:43:00,
2013-08-02 08:53:00,72.0,-99.9,-100.00,WSW,242,3.0,8.0,-999,0.00,,,0.00,,2013-08-02 13:53:00,
2013-08-02 09:12:00,74.0,-99.9,-100.00,WSW,256,6.0,11.0,-999,0.00,,,0.00,,2013-08-02 14:12:00,
2013-08-02 09:23:00,74.0,-99.9,-100.00,WSW,256,6.0,11.0,-999,0.00,,,0.00,,2013-08-02 14:23:00,
2013-08-02 09:43:00,75.0,-99.9,-100.00,West,269,4.0,7.0,-999,0.00,,,0.00,,2013-08-02 14:43:00,
2013-08-02 09:53:00,75.0,-99.9,-100.00,West,269,4.0,7.0,-999,0.00,,,0.00,,2013-08-02 14:53:00,
2013-08-02 10:12:00,76.0,-99.9,-100.00,West,262,3.0,6.0,-999,0.00,,,0.00,,2013-08-02 15:12:00,
2013-08-02 10:22:00,76.0,-99.9,-100.00,West,262,3.0,6.0,-999,0.00,,,0.00,,2013-08-02 15:22:00,
2013-08-02 10:43:00,77.0,-99.9,-100.00,WNW,293,6.0,9.0,-999,0.00,,,-99.99,,2013-08-02 15:43:00,
2013-08-02 10:53:00,77.0,-99.9,-100.00,WNW,293,6.0,9.0,-999,0.00,,,-99.99,,2013-08-02 15:53:00,
2013-08-02 11:12:00,80.0,-99.9,-100.00,WSW,254,3.0,7.0,-999,0.00,,,-99.99,,2013-08-02 16:12:00,
2013-08-02 11:22:00,80.0,-99.9,-100.00,WSW,254,3.0,7.0,-999,0.00,,,-99.99,,2013-08-02 16:22:00,
2013-08-02 11:32:00,81.0,-99.9,-100.00,West,260,5.0,8.0,-999,0.00,,,0.00,,2013-08-02 16:32:00,
2013-08-02 11:43:00,81.0,-99.9,-100.00,West,260,5.0,8.0,-999,0.00,,,0.00,,2013-08-02 16:43:00,
2013-08-02 11:53:00,81.0,-99.9,-100.00,West,260,5.0,8.0,-999,0.00,,,0.00,,2013-08-02 16:53:00,
2013-08-02 12:12:00,80.0,-99.9,-100.00,West,264,4.0,7.0,-999,0.00,,,0.00,,2013-08-02 17:12:00,
2013-08-02 12:22:00,80.0,-99.9,-100.00,West,264,4.0,7.0,-999,0.00,,,0.00,,2013-08-02 17:22:00,
2013-08-02 12:35:00,82.0,-99.9,-100.00,WSW,242,2.0,7.0,-999,0.00,,,0.00,,2013-08-02 17:35:00,
2013-08-02 12:43:00,82.0,-99.9,-100.00,WSW,242,2.0,7.0,-999,0.00,,,0.00,,2013-08-02 17:43:00,
2013-08-02 12:52:00,82.0,-99.9,-100.00,WSW,242,2.0,7.0,-999,0.00,,,0.00,,2013-08-02 17:52:00,
2013-08-02 13:03:00,84.0,-99.9,-100.00,WSW,237,1.0,5.0,-999,0.00,,,0.00,,2013-08-02 18:03:00,
2013-08-02 13:12:00,84.0,-99.9,-100.00,WSW,237,1.0,5.0,-999,0.00,,,0.00,,2013-08-02 18:12:00,
2013-08-02 13:22:00,84.0,-99.9,-100.00,WSW,237,1.0,5.0,-999,0.00,,,0.00,,2013-08-02 18:22:00,
2013-08-02 13:33:00,83.0,-99.9,-100.00,WSW,242,2.0,6.0,-999,0.00,,,0.00,,2013-08-02 18:33:00,
2013-08-02 13:43:00,83.0,-99.9,-100.00,WSW,242,2.0,6.0,-999,0.00,,,0.00,,2013-08-02 18:43:00,
2013-08-02 13:52:00,83.0,-99.9,-100.00,WSW,242,2.0,6.0,-999,0.00,,,0.00,,2013-08-02 18:52:00,
2013-08-02 14:03:00,82.0,-99.9,-100.00,WSW,245,2.0,4.0,-999,0.00,,,0.00,,2013-08-02 19:03:00,
2013-08-02 14:12:00,82.0,-99.9,-100.00,WSW,245,2.0,4.0,-999,0.00,,,0.00,,2013-08-02 19:12:00,
2013-08-02 14:22:00,82.0,-99.9,-100.00,WSW,245,2.0,4.0,-999,0.00,,,0.00,,2013-08-02 19:22:00,
2013-08-02 14:43:00,81.0,-99.9,-100.00,WSW,242,3.0,5.0,-999,0.00,,,0.00,,2013-08-02 19:43:00,
2013-08-02 14:52:00,81.0,-99.9,-100.00,WSW,242,3.0,5.0,-999,0.00,,,0.00,,2013-08-02 19:52:00,
2013-08-02 15:12:00,83.0,-99.9,-100.00,WSW,248,4.0,6.0,-999,0.00,,,0.00,,2013-08-02 20:12:00,
2013-08-02 15:23:00,83.0,-99.9,-100.00,WSW,248,4.0,6.0,-999,0.00,,,0.00,,2013-08-02 20:23:00,
2013-08-02 15:43:00,83.0,-99.9,-100.00,WSW,248,4.0,6.0,-999,0.00,,,0.00,,2013-08-02 20:43:00,
2013-08-02 15:52:00,83.0,-99.9,-100.00,WSW,248,4.0,6.0,-999,0.00,,,0.00,,2013-08-02 20:52:00,
2013-08-02 16:12:00,84.0,-99.9,-100.00,WSW,246,1.0,8.0,-999,0.00,,,0.00,,2013-08-02 21:12:00,
2013-08-02 16:22:00,84.0,-99.9,-100.00,WSW,246,1.0,8.0,-999,0.00,,,0.00,,2013-08-02 21:22:00,
2013-08-02 16:43:00,84.0,-99.9,-100.00,WSW,242,2.0,4.0,-999,0.00,,,0.00,,2013-08-02 21:43:00,
2013-08-02 16:53:00,84.0,-99.9,-100.00,WSW,242,2.0,4.0,-999,0.00,,,0.00,,2013-08-02 21:53:00,
2013-08-02 17:12:00,83.0,-99.9,-100.00,WSW,245,2.0,3.0,-999,0.00,,,0.00,,2013-08-02 22:12:00,
2013-08-02 17:22:00,83.0,-99.9,-100.00,WSW,245,2.0,3.0,-999,0.00,,,0.00,,2013-08-02 22:22:00,
2013-08-02 17:43:00,82.0,-99.9,-100.00,West,275,4.0,6.0,-999,0.00,,,0.00,,2013-08-02 22:43:00,
2013-08-02 17:52:00,82.0,-99.9,-100.00,West,275,4.0,6.0,-999,0.00,,,0.00,,2013-08-02 22:52:00,
2013-08-02 18:12:00,82.0,-99.9,-100.00,NW,305,3.0,5.0,-999,0.00,,,0.00,,2013-08-02 23:12:00,
2013-08-02 18:22:00,82.0,-99.9,-100.00,NW,305,3.0,5.0,-999,0.00,,,0.00,,2013-08-02 23:22:00,
2013-08-02 18:32:00,82.0,-99.9,-100.00,WNW,286,4.0,6.0,-999,0.00,,,0.00,,2013-08-02 23:32:00,
2013-08-02 18:44:00,82.0,-99.9,-100.00,WNW,286,4.0,6.0,-999,0.00,,,0.00,,2013-08-02 23:44:00,
2013-08-02 18:53:00,82.0,-99.9,-100.00,WNW,286,4.0,6.0,-999,0.00,,,0.00,,2013-08-02 23:53:00,
2013-08-02 19:02:00,81.0,-99.9,-100.00,West,281,5.0,7.0,-999,0.00,,,0.00,,2013-08-03 00:02:00,
2013-08-02 19:12:00,81.0,-99.9,-100.00,West,281,5.0,7.0,-999,0.00,,,0.00,,2013-08-03 00:12:00,
2013-08-02 19:22:00,81.0,-99.9,-100.00,West,281,5.0,7.0,-999,0.00,,,0.00,,2013-08-03 00:22:00,
2013-08-02 19:43:00,76.0,-99.9,-100.00,NNW,333,7.0,9.0,-999,0.00,,,0.00,,2013-08-03 00:43:00,
2013-08-02 19:52:00,76.0,-99.9,-100.00,NNW,333,7.0,9.0,-999,0.00,,,0.00,,2013-08-03 00:52:00,
2013-08-02 20:12:00,76.0,-99.9,-100.00,NNW,342,6.0,7.0,-999,0.00,,,0.00,,2013-08-03 01:12:00,
2013-08-02 20:22:00,76.0,-99.9,-100.00,NNW,342,6.0,7.0,-999,0.00,,,0.00,,2013-08-03 01:22:00,
2013-08-02 20:33:00,75.0,-99.9,-100.00,North,1,13.0,16.0,-999,0.00,,,0.00,,2013-08-03 01:33:00,
2013-08-02 20:42:00,75.0,-99.9,-100.00,North,1,13.0,16.0,-999,0.00,,,0.00,,2013-08-03 01:42:00,
2013-08-02 20:53:00,75.0,-99.9,-100.00,North,1,13.0,16.0,-999,0.00,,,0.00,,2013-08-03 01:53:00,
2013-08-02 21:12:00,72.0,-99.9,-100.00,North,358,10.0,13.0,-999,0.00,,,0.00,,2013-08-03 02:12:00,
2013-08-02 21:22:00,72.0,-99.9,-100.00,North,358,10.0,13.0,-999,0.00,,,0.00,,2013-08-03 02:22:00,
2013-08-02 21:32:00,71.0,-99.9,-100.00,NNE,22,6.0,9.0,-999,0.00,,,0.00,,2013-08-03 02:32:00,
2013-08-02 21:43:00,71.0,-99.9,-100.00,NNE,22,6.0,9.0,-999,0.00,,,0.00,,2013-08-03 02:43:00,
2013-08-02 21:53:00,71.0,-99.9,-100.00,NNE,22,6.0,9.0,-999,0.00,,,0.00,,2013-08-03 02:53:00,
2013-08-02 22:12:00,71.0,-99.9,-100.00,NNE,15,7.0,9.0,-999,0.00,,,0.00,,2013-08-03 03:12:00,
2013-08-02 22:22:00,71.0,-99.9,-100.00,NNE,15,7.0,9.0,-999,0.00,,,0.00,,2013-08-03 03:22:00,
2013-08-02 22:43:00,70.0,-99.9,-100.00,North,3,6.0,9.0,-999,0.00,,,0.00,,2013-08-03 03:43:00,
2013-08-02 22:53:00,70.0,-99.9,-100.00,North,3,6.0,9.0,-999,0.00,,,0.00,,2013-08-03 03:53:00,
2013-08-02 23:02:00,70.0,-99.9,-100.00,North,356,7.0,8.0,-999,0.00,,,0.00,,2013-08-03 04:02:00,
2013-08-02 23:12:00,70.0,-99.9,-100.00,North,356,7.0,8.0,-999,0.00,,,0.00,,2013-08-03 04:12:00,
2013-08-02 23:22:00,70.0,-99.9,-100.00,North,356,7.0,8.0,-999,0.00,,,0.00,,2013-08-03 04:22:00,
2013-08-02 23:33:00,69.0,-99.9,-100.00,NNE,33,3.0,4.0,-999,0.00,,,0.00,,2013-08-03 04:33:00,
2013-08-02 23:43:00,69.0,-99.9,-100.00,NNE,33,3.0,4.0,-999,0.00,,,0.00,,2013-08-03 04:43:00,
2013-08-02 23:53:00,69.0,-99.9,-100.00,NNE,33,3.0,4.0,-999,0.00,,,0.00,,2013-08-03 04:53:00,